User: anonymous   Login
Location: B�rgermoos
(47.6500°N, 9.0667°E)
Time: 20:52:08
(UTC+00:00)
Language:

Cosmos 1975 - Orbit

View from above orbital plane
View from above orbital plane
View from above satellite
View from above satellite

Ground track
Ground track

The orbit data is extracted from the following two-line orbital elements,

1 19573U 88093A   20331.92438559 +.00000787 +00000-0 +53375-4 0  9996
2 19573 082.5208 206.7986 0013645 336.2652 023.7944 15.04984257727949
Epoch (UTC): 26 November 2020 22:11:06
Eccentricity: 0.0013645
inclination: 82.5208°
perigee height: 542 km
apogee height: 561 km
right ascension of ascending node: 206.7986°
argument of perigee: 336.2652°
revolutions per day: 15.04984257
mean anomaly at epoch: 23.7944°
orbit number at epoch: 72794

The dashed part of the orbit path shows where the satellite is in the earth's shadow,  

DLR